Wetterdaten: Sonntag, 13.01.2008
Datum Zeit Temp. a Sch. Temp. a Son. Temp. a Bod. Feuchte a. Luftdruck Regen Wind Richtung Richtung Sonnenschein Helligkeit Taupunkt Windchill
13.01.2008 00:02 -1,9 C -1,6 C -2,4 C 88 % 1016 hPa 0,0 l/m 0,0 m/s (0 Bft) W 265 0 min 0 lux -3,6 C -1,9 C
13.01.2008 00:07 -1,8 C -1,7 C -2,2 C 88 % 1016 hPa 0,0 l/m 0,0 m/s (0 Bft) W 265 0 min 0 lux -3,5 C -1,8 C
13.01.2008 00:12 -1,7 C -1,7 C -2,4 C 89 % 1016 hPa 0,0 l/m 0,0 m/s (0 Bft) W 260 0 min 0 lux -3,3 C -1,7 C
13.01.2008 00:17 -1,9 C -1,8 C -2,4 C 89 % 1016 hPa 0,0 l/m 0,1 m/s (0 Bft) W 260 0 min 0 lux -3,5 C -1,9 C
13.01.2008 00:22 -1,9 C -1,8 C -2,8 C 89 % 1016 hPa 0,0 l/m 0,3 m/s (1 Bft) N-NO67.5 20 0 min 0 lux -3,5 C -1,9 C
13.01.2008 00:27 -2,2 C -1,9 C -2,7 C 89 % 1016 hPa 0,0 l/m 0,0 m/s (0 Bft) NO 55 0 min 0 lux -3,8 C -2,2 C
13.01.2008 00:32 -2,0 C -2,0 C -2,5 C 89 % 1016 hPa 0,0 l/m 0,0 m/s (0 Bft) NO 55 0 min 0 lux -3,6 C -2,0 C
13.01.2008 00:37 -2,0 C -2,1 C -2,7 C 89 % 1016 hPa 0,0 l/m 0,0 m/s (0 Bft) O-NO 60 0 min 0 lux -3,6 C -2,0 C
13.01.2008 00:42 -2,3 C -2,2 C -2,6 C 89 % 1017 hPa 0,0 l/m 0,0 m/s (0 Bft) NO 55 0 min 0 lux -3,9 C -2,3 C
13.01.2008 00:47 -1,9 C -2,2 C -2,7 C 89 % 1017 hPa 0,0 l/m 0,0 m/s (0 Bft) NO 55 0 min 0 lux -3,5 C -1,9 C
13.01.2008 00:52 -2,0 C -2,3 C -2,4 C 89 % 1017 hPa 0,0 l/m 0,0 m/s (0 Bft) NO 55 0 min 0 lux -3,6 C -2,0 C
13.01.2008 00:57 -2,6 C -2,3 C -2,5 C 89 % 1017 hPa 0,0 l/m 0,0 m/s (0 Bft) NO 55 0 min 0 lux -4,2 C -2,6 C
13.01.2008 01:02 -2,6 C -2,3 C -2,9 C 89 % 1017 hPa 0,0 l/m 0,0 m/s (0 Bft) NO 55 0 min 0 lux -4,2 C -2,6 C
13.01.2008 01:07 -2,6 C -2,3 C -2,8 C 89 % 1016 hPa 0,0 l/m 0,0 m/s (0 Bft) NO 55 0 min 0 lux -4,2 C -2,6 C
13.01.2008 01:12 -2,3 C -2,4 C -2,7 C 89 % 1016 hPa 0,0 l/m 0,0 m/s (0 Bft) NO 55 0 min 0 lux -3,9 C -2,3 C
13.01.2008 01:17 -2,5 C -2,4 C -2,6 C 89 % 1017 hPa 0,0 l/m 0,0 m/s (0 Bft) NO 55 0 min 0 lux -4,1 C -2,5 C
13.01.2008 01:22 -2,6 C -2,4 C -2,7 C 89 % 1017 hPa 0,0 l/m 0,0 m/s (0 Bft) NO 55 0 min 0 lux -4,2 C -2,6 C
13.01.2008 01:27 -2,4 C -2,4 C -2,8 C 90 % 1017 hPa 0,0 l/m 0,0 m/s (0 Bft) NO 55 0 min 0 lux -3,8 C -2,4 C
13.01.2008 01:32 -2,3 C -2,5 C -2,9 C 90 % 1017 hPa 0,0 l/m 0,0 m/s (0 Bft) NO 55 0 min 0 lux -3,7 C -2,3 C
13.01.2008 01:37 -2,3 C -2,5 C -2,9 C 90 % 1017 hPa 0,0 l/m 0,2 m/s (0 Bft) NO 55 0 min 0 lux -3,7 C -2,3 C
13.01.2008 01:42 -2,6 C -2,5 C -2,7 C 90 % 1017 hPa 0,0 l/m 0,8 m/s (1 Bft) NO 55 0 min 0 lux -4,0 C -2,6 C
13.01.2008 01:47 -2,8 C -2,6 C -3,0 C 90 % 1017 hPa 0,0 l/m 0,0 m/s (0 Bft) NO 55 0 min 0 lux -4,2 C -2,8 C
13.01.2008 01:52 -2,8 C -2,6 C -3,0 C 90 % 1017 hPa 0,0 l/m 0,0 m/s (0 Bft) NO 55 0 min 0 lux -4,2 C -2,8 C
13.01.2008 01:57 -2,8 C -2,6 C -3,0 C 90 % 1017 hPa 0,0 l/m 0,0 m/s (0 Bft) NO 55 0 min 0 lux -4,2 C -2,8 C
13.01.2008 02:02 -2,6 C -2,7 C -2,7 C 90 % 1017 hPa 0,0 l/m 0,0 m/s (0 Bft) NO 55 0 min 0 lux -4,0 C -2,6 C
13.01.2008 02:07 -2,9 C -2,7 C -2,9 C 90 % 1017 hPa 0,0 l/m 0,0 m/s (0 Bft) NO 55 0 min 0 lux -4,3 C -2,9 C
13.01.2008 02:12 -2,7 C -2,8 C -3,0 C 90 % 1017 hPa 0,0 l/m 0,0 m/s (0 Bft) NO 55 0 min 0 lux -4,1 C -2,7 C
13.01.2008 02:17 -3,0 C -2,8 C -3,0 C 90 % 1017 hPa 0,0 l/m 0,0 m/s (0 Bft) NO 55 0 min 0 lux -4,4 C -3,0 C
13.01.2008 02:22 -2,8 C -2,9 C -2,9 C 90 % 1017 hPa 0,0 l/m 0,0 m/s (0 Bft) NO 55 0 min 0 lux -4,2 C -2,8 C
13.01.2008 02:27 -2,9 C -2,9 C -3,0 C 90 % 1017 hPa 0,0 l/m 0,0 m/s (0 Bft) NO 55 0 min 0 lux -4,3 C -2,9 C
13.01.2008 02:32 -3,0 C -3,0 C -2,9 C 90 % 1017 hPa 0,0 l/m 0,0 m/s (0 Bft) NO 55 0 min 0 lux -4,4 C -3,0 C
13.01.2008 02:37 -3,1 C -2,9 C -3,3 C 90 % 1017 hPa 0,0 l/m 0,0 m/s (0 Bft) NO 55 0 min 0 lux -4,5 C -3,1 C
13.01.2008 02:42 -3,0 C -3,0 C -3,2 C 90 % 1017 hPa 0,0 l/m 0,0 m/s (0 Bft) NO 55 0 min 0 lux -4,4 C -3,0 C
13.01.2008 02:47 -3,0 C -3,0 C -3,0 C 90 % 1017 hPa 0,0 l/m 0,0 m/s (0 Bft) NO 55 0 min 0 lux -4,4 C -3,0 C
13.01.2008 02:52 -3,0 C -3,1 C -3,1 C 90 % 1017 hPa 0,0 l/m 0,0 m/s (0 Bft) NO 55 0 min 0 lux -4,4 C -3,0 C
13.01.2008 02:57 -3,2 C -3,2 C -3,2 C 90 % 1017 hPa 0,0 l/m 0,0 m/s (0 Bft) O-NO 60 0 min 0 lux -4,6 C -3,2 C
13.01.2008 03:02 -3,2 C -3,2 C -3,0 C 90 % 1017 hPa 0,0 l/m 0,0 m/s (0 Bft) O-NO 60 0 min 0 lux -4,6 C -3,2 C
13.01.2008 03:07 -3,4 C -3,2 C -3,0 C 90 % 1017 hPa 0,0 l/m 0,0 m/s (0 Bft) O-NO 60 0 min 0 lux -4,8 C -3,4 C
13.01.2008 03:12 -3,5 C -3,3 C -3,2 C 90 % 1017 hPa 0,0 l/m 0,0 m/s (0 Bft) O-NO 60 0 min 0 lux -4,9 C -3,5 C
13.01.2008 03:17 -3,3 C -3,3 C -3,3 C 90 % 1017 hPa 0,0 l/m 0,0 m/s (0 Bft) NO 55 0 min 0 lux -4,7 C -3,3 C
13.01.2008 03:22 -3,4 C -3,3 C -3,3 C 90 % 1017 hPa 0,0 l/m 0,0 m/s (0 Bft) NO 55 0 min 0 lux -4,8 C -3,4 C
13.01.2008 03:27 -3,2 C -3,3 C -3,4 C 90 % 1017 hPa 0,0 l/m 0,0 m/s (0 Bft) NO 55 0 min 0 lux -4,6 C -3,2 C
13.01.2008 03:32 -3,1 C -3,3 C -3,1 C 91 % 1017 hPa 0,0 l/m 0,0 m/s (0 Bft) NO 55 0 min 0 lux -4,4 C -3,1 C
13.01.2008 03:37 -3,0 C -3,3 C -3,2 C 91 % 1017 hPa 0,0 l/m 0,0 m/s (0 Bft) NO 55 0 min 0 lux -4,3 C -3,0 C
13.01.2008 03:42 -3,2 C -3,4 C -3,3 C 91 % 1017 hPa 0,0 l/m 0,0 m/s (0 Bft) NO 55 0 min 0 lux -4,5 C -3,2 C
13.01.2008 03:47 -3,1 C -3,4 C -3,4 C 91 % 1017 hPa 0,0 l/m 0,0 m/s (0 Bft) NO 55 0 min 0 lux -4,4 C -3,1 C
13.01.2008 03:52 -3,0 C -3,4 C -3,5 C 91 % 1017 hPa 0,0 l/m 0,0 m/s (0 Bft) NO 55 0 min 0 lux -4,3 C -3,0 C
13.01.2008 03:57 -3,1 C -3,4 C -3,3 C 91 % 1017 hPa 0,0 l/m 0,0 m/s (0 Bft) NO 55 0 min 0 lux -4,4 C -3,1 C
13.01.2008 04:02 -3,4 C -3,4 C -3,3 C 91 % 1017 hPa 0,0 l/m 0,0 m/s (0 Bft) NO 55 0 min 0 lux -4,7 C -3,4 C
13.01.2008 04:07 -3,4 C -3,4 C -3,3 C 91 % 1017 hPa 0,0 l/m 0,0 m/s (0 Bft) NO 55 0 min 0 lux -4,7 C -3,4 C
13.01.2008 04:12 -3,3 C -3,5 C -3,3 C 91 % 1017 hPa 0,0 l/m 0,0 m/s (0 Bft) NO 55 0 min 0 lux -4,6 C -3,3 C
13.01.2008 04:17 -3,5 C -3,5 C -3,4 C 91 % 1017 hPa 0,0 l/m 0,0 m/s (0 Bft) NO 55 0 min 0 lux -4,8 C -3,5 C
13.01.2008 04:22 -3,5 C -3,5 C -3,3 C 90 % 1017 hPa 0,0 l/m 0,0 m/s (0 Bft) NO 55 0 min 0 lux -4,9 C -3,5 C
13.01.2008 04:27 -3,4 C -3,6 C -3,5 C 90 % 1017 hPa 0,0 l/m 0,0 m/s (0 Bft) NO 55 0 min 0 lux -4,8 C -3,4 C
13.01.2008 04:32 -3,2 C -3,6 C -3,5 C 91 % 1017 hPa 0,0 l/m 0,0 m/s (0 Bft) NO 55 0 min 0 lux -4,5 C -3,2 C
13.01.2008 04:37 -3,2 C -3,6 C -3,6 C 91 % 1017 hPa 0,0 l/m 0,0 m/s (0 Bft) NO 55 0 min 0 lux -4,5 C -3,2 C
13.01.2008 04:42 -3,4 C -3,6 C -3,6 C 90 % 1017 hPa 0,0 l/m 0,7 m/s (1 Bft) NO 55 0 min 0 lux -4,8 C -3,4 C
13.01.2008 04:47 -3,4 C -3,6 C -3,8 C 90 % 1017 hPa 0,0 l/m 0,1 m/s (0 Bft) NO 55 0 min 0 lux -4,8 C -3,4 C
13.01.2008 04:52 -3,8 C -3,7 C -3,6 C 90 % 1017 hPa 0,0 l/m 0,0 m/s (0 Bft) NO 55 0 min 0 lux -5,2 C -3,8 C
13.01.2008 04:57 -3,7 C -3,7 C -3,6 C 90 % 1017 hPa 0,0 l/m 0,0 m/s (0 Bft) NO 55 0 min 0 lux -5,1 C -3,7 C
13.01.2008 05:02 -3,8 C -3,7 C -3,6 C 90 % 1017 hPa 0,0 l/m 0,0 m/s (0 Bft) NO 55 0 min 0 lux -5,2 C -3,8 C
13.01.2008 05:07 -3,8 C -3,7 C -3,8 C 90 % 1017 hPa 0,0 l/m 0,0 m/s (0 Bft) NO 55 0 min 0 lux -5,2 C -3,8 C
13.01.2008 05:12 -3,7 C -3,8 C -3,8 C 90 % 1017 hPa 0,0 l/m 0,0 m/s (0 Bft) NO 55 0 min 0 lux -5,1 C -3,7 C
13.01.2008 05:17 -3,8 C -3,8 C -3,7 C 90 % 1017 hPa 0,0 l/m 0,0 m/s (0 Bft) NO 55 0 min 0 lux -5,2 C -3,8 C
13.01.2008 05:22 -3,9 C -3,8 C -3,9 C 90 % 1017 hPa 0,0 l/m 0,0 m/s (0 Bft) NO 55 0 min 0 lux -5,3 C -3,9 C
13.01.2008 05:27 -4,0 C -3,9 C -3,9 C 90 % 1017 hPa 0,0 l/m 0,0 m/s (0 Bft) NO 55 0 min 0 lux -5,4 C -4,0 C
13.01.2008 05:32 -3,9 C -3,9 C -3,8 C 90 % 1018 hPa 0,0 l/m 0,0 m/s (0 Bft) NO 55 0 min 0 lux -5,3 C -3,9 C
13.01.2008 05:37 -4,1 C -3,9 C -3,6 C 90 % 1018 hPa 0,0 l/m 0,0 m/s (0 Bft) NO 55 0 min 0 lux -5,5 C -4,1 C
13.01.2008 05:42 -3,9 C -4,0 C -3,9 C 90 % 1017 hPa 0,0 l/m 0,0 m/s (0 Bft) NO 55 0 min 0 lux -5,3 C -3,9 C
13.01.2008 05:47 -4,1 C -4,0 C -3,8 C 90 % 1017 hPa 0,0 l/m 0,0 m/s (0 Bft) NO 55 0 min 0 lux -5,5 C -4,1 C
13.01.2008 05:52 -4,1 C -4,0 C -3,9 C 89 % 1018 hPa 0,0 l/m 0,0 m/s (0 Bft) NO 55 0 min 0 lux -5,6 C -4,1 C
13.01.2008 05:57 -4,0 C -4,1 C -4,2 C 90 % 1018 hPa 0,0 l/m 0,0 m/s (0 Bft) NO 55 0 min 0 lux -5,4 C -4,0 C
13.01.2008 06:02 -4,1 C -4,1 C -4,2 C 89 % 1018 hPa 0,0 l/m 0,0 m/s (0 Bft) NO 55 0 min 0 lux -5,6 C -4,1 C
13.01.2008 06:07 -3,9 C -4,1 C -3,9 C 90 % 1018 hPa 0,0 l/m 0,0 m/s (0 Bft) NO 55 0 min 0 lux -5,3 C -3,9 C
13.01.2008 06:12 -3,5 C -4,2 C -4,1 C 90 % 1018 hPa 0,0 l/m 0,0 m/s (0 Bft) O-NO 60 0 min 0 lux -4,9 C -3,5 C
13.01.2008 06:17 -3,9 C -4,2 C -4,0 C 90 % 1018 hPa 0,0 l/m 0,0 m/s (0 Bft) O-NO 60 0 min 0 lux -5,3 C -3,9 C
13.01.2008 06:22 -3,8 C -4,2 C -4,0 C 90 % 1017 hPa 0,0 l/m 0,0 m/s (0 Bft) O-NO 60 0 min 0 lux -5,2 C -3,8 C
13.01.2008 06:27 -3,9 C -4,2 C -4,2 C 90 % 1018 hPa 0,0 l/m 0,0 m/s (0 Bft) O-NO 60 0 min 0 lux -5,3 C -3,9 C
13.01.2008 06:32 -4,0 C -4,3 C -4,2 C 90 % 1018 hPa 0,0 l/m 0,0 m/s (0 Bft) O-NO 60 0 min 0 lux -5,4 C -4,0 C
13.01.2008 06:36 -3,9 C -4,3 C -4,1 C 90 % 1018 hPa 0,0 l/m 0,0 m/s (0 Bft) O-NO 60 0 min 0 lux -5,3 C -3,9 C
13.01.2008 06:42 -4,0 C -4,3 C -4,5 C 90 % 1018 hPa 0,0 l/m 0,0 m/s (0 Bft) O-NO 60 0 min 0 lux -5,4 C -4,0 C
13.01.2008 06:47 -4,3 C -4,3 C -4,4 C 89 % 1018 hPa 0,0 l/m 0,0 m/s (0 Bft) O-NO 70 0 min 0 lux -5,8 C -4,3 C
13.01.2008 06:52 -4,2 C -4,3 C -4,3 C 89 % 1018 hPa 0,0 l/m 0,0 m/s (0 Bft) O-NO 70 0 min 0 lux -5,7 C -4,2 C
13.01.2008 06:57 -4,3 C -4,4 C -4,4 C 89 % 1018 hPa 0,0 l/m 0,0 m/s (0 Bft) O-NO 70 0 min 0 lux -5,8 C -4,3 C
13.01.2008 07:02 -4,2 C -4,4 C -4,4 C 89 % 1018 hPa 0,0 l/m 0,0 m/s (0 Bft) O-NO 70 0 min 0 lux -5,7 C -4,2 C
13.01.2008 07:07 -4,4 C -4,4 C -4,4 C 89 % 1018 hPa 0,0 l/m 0,0 m/s (0 Bft) O-NO 70 0 min 0 lux -5,9 C -4,4 C
13.01.2008 07:12 -4,6 C -4,4 C -4,5 C 89 % 1018 hPa 0,0 l/m 0,0 m/s (0 Bft) O-NO 70 0 min 0 lux -6,1 C -4,6 C
13.01.2008 07:17 -4,5 C -4,5 C -4,5 C 89 % 1018 hPa 0,0 l/m 0,0 m/s (0 Bft) O-NO 70 0 min 0 lux -6,0 C -4,5 C
13.01.2008 07:22 -4,4 C -4,5 C -4,5 C 89 % 1018 hPa 0,0 l/m 0,0 m/s (0 Bft) O-NO 70 0 min 0 lux -5,9 C -4,4 C
13.01.2008 07:27 -4,1 C -4,5 C -4,3 C 89 % 1018 hPa 0,0 l/m 0,0 m/s (0 Bft) O-NO 70 0 min 0 lux -5,6 C -4,1 C
13.01.2008 07:32 -3,9 C -4,5 C -4,4 C 89 % 1018 hPa 0,0 l/m 1,0 m/s (1 Bft) O 80 0 min 0 lux -5,4 C -3,9 C
13.01.2008 07:37 -4,1 C -4,5 C -4,4 C 89 % 1018 hPa 0,0 l/m 0,1 m/s (0 Bft) O 90 0 min 0 lux -5,6 C -4,1 C
13.01.2008 07:42 -3,6 C -4,4 C -4,2 C 90 % 1018 hPa 0,0 l/m 1,3 m/s (1 Bft) O-SO22.5 110 0 min 0 lux -5,0 C -3,6 C
13.01.2008 07:47 -3,6 C -4,4 C -4,2 C 90 % 1018 hPa 0,0 l/m 0,0 m/s (0 Bft) SO 125 0 min 0 lux -5,0 C -3,6 C
13.01.2008 07:52 -3,8 C -4,3 C -4,3 C 90 % 1018 hPa 0,0 l/m 0,0 m/s (0 Bft) SO 125 0 min 0 lux -5,2 C -3,8 C
13.01.2008 07:57 -3,8 C -4,3 C -4,4 C 90 % 1018 hPa 0,0 l/m 0,0 m/s (0 Bft) SO 125 0 min 0 lux -5,2 C -3,8 C
13.01.2008 08:02 -3,8 C -4,3 C -4,3 C 90 % 1018 hPa 0,0 l/m 0,0 m/s (0 Bft) SO 125 0 min 0 lux -5,2 C -3,8 C
13.01.2008 08:07 -3,8 C -4,3 C -4,3 C 90 % 1018 hPa 0,0 l/m 0,0 m/s (0 Bft) SO 125 0 min 44 lux -5,2 C -3,8 C
13.01.2008 08:12 -3,9 C -4,2 C -4,2 C 90 % 1018 hPa 0,0 l/m 0,3 m/s (1 Bft) SO 125 0 min 56 lux -5,3 C -3,9 C
13.01.2008 08:17 -3,8 C -4,2 C -4,2 C 91 % 1018 hPa 0,0 l/m 1,7 m/s (2 Bft) SO 125 0 min 155 lux -5,0 C -3,8 C
13.01.2008 08:22 -3,6 C -4,1 C -4,2 C 91 % 1018 hPa 0,0 l/m 2,4 m/s (2 Bft) O-SO22.5 120 0 min 200 lux -4,8 C -6,3 C
13.01.2008 08:27 -3,6 C -4,0 C -4,1 C 91 % 1018 hPa 0,0 l/m 1,7 m/s (2 Bft) O-SO 120 0 min 287 lux -4,8 C -3,6 C
13.01.2008 08:32 -3,6 C -4,0 C -4,1 C 91 % 1018 hPa 0,0 l/m 1,1 m/s (1 Bft) O-SO 120 0 min 493 lux -4,8 C -3,6 C
13.01.2008 08:37 -3,6 C -4,0 C -4,2 C 92 % 1018 hPa 0,0 l/m 0,9 m/s (1 Bft) O-SO 120 0 min 753 lux -4,7 C -3,6 C
13.01.2008 08:42 -4,1 C -4,0 C -4,5 C 91 % 1018 hPa 0,0 l/m 1,0 m/s (1 Bft) O-SO 120 0 min 836 lux -5,3 C -4,1 C
13.01.2008 08:47 -3,9 C -4,0 C -4,2 C 91 % 1018 hPa 0,0 l/m 1,8 m/s (2 Bft) O-SO 120 0 min 1,00 klux -5,1 C -3,9 C
13.01.2008 08:52 -3,6 C -3,9 C -4,0 C 92 % 1018 hPa 0,0 l/m 1,3 m/s (1 Bft) O-SO22.5 110 0 min 1,36 klux -4,7 C -3,6 C
13.01.2008 08:57 -3,5 C -3,9 C -3,8 C 92 % 1018 hPa 0,0 l/m 1,1 m/s (1 Bft) O-SO 105 0 min 1,54 klux -4,6 C -3,5 C
13.01.2008 09:02 -3,3 C -3,8 C -3,7 C 92 % 1018 hPa 0,0 l/m 1,3 m/s (1 Bft) O-SO 110 0 min 1,56 klux -4,4 C -3,3 C
13.01.2008 09:07 -3,3 C -3,6 C -3,6 C 92 % 1018 hPa 0,0 l/m 1,2 m/s (1 Bft) O-SO 110 0 min 1,52 klux -4,4 C -3,3 C
13.01.2008 09:12 -3,1 C -3,5 C -3,3 C 92 % 1018 hPa 0,0 l/m 1,7 m/s (2 Bft) O-SO22.5 105 0 min 1,79 klux -4,2 C -3,1 C
13.01.2008 09:17 -2,8 C -3,3 C -3,2 C 93 % 1018 hPa 0,0 l/m 2,3 m/s (2 Bft) O22.5 95 0 min 2,00 klux -3,8 C -4,8 C
13.01.2008 09:22 -2,7 C -3,3 C -3,0 C 93 % 1018 hPa 0,0 l/m 2,0 m/s (2 Bft) O22.5 95 0 min 2,92 klux -3,7 C -3,5 C
13.01.2008 09:27 -2,7 C -3,1 C -2,9 C 93 % 1018 hPa 0,0 l/m 1,9 m/s (2 Bft) O-SO22.5 105 0 min 2,24 klux -3,7 C -3,3 C
13.01.2008 09:32 -2,3 C -3,1 C -2,8 C 93 % 1018 hPa 0,0 l/m 2,1 m/s (2 Bft) O22.5 95 0 min 3,32 klux -3,3 C -3,4 C
13.01.2008 09:37 -2,2 C -2,8 C -2,5 C 93 % 1018 hPa 0,0 l/m 0,9 m/s (1 Bft) O 95 0 min 3,86 klux -3,2 C -2,2 C
13.01.2008 09:42 -2,1 C -2,6 C -2,4 C 93 % 1018 hPa 0,0 l/m 0,9 m/s (1 Bft) O 95 0 min 4,21 klux -3,1 C -2,1 C
13.01.2008 09:47 -1,8 C -2,5 C -2,1 C 93 % 1018 hPa 0,0 l/m 0,0 m/s (0 Bft) O 95 0 min 4,32 klux -2,8 C -1,8 C
13.01.2008 09:52 -1,8 C -2,3 C -2,1 C 93 % 1018 hPa 0,0 l/m 0,6 m/s (1 Bft) O 95 0 min 4,38 klux -2,8 C -1,8 C
13.01.2008 09:57 -1,7 C -2,1 C -1,9 C 93 % 1018 hPa 0,0 l/m 1,6 m/s (2 Bft) O-SO22.5 105 0 min 5,10 klux -2,7 C -1,7 C
13.01.2008 10:02 -1,4 C -2,0 C -1,8 C 94 % 1018 hPa 0,0 l/m 1,3 m/s (1 Bft) O 100 0 min 6,34 klux -2,2 C -1,4 C
13.01.2008 10:07 -1,3 C -1,8 C -1,7 C 94 % 1018 hPa 0,0 l/m 1,4 m/s (1 Bft) O-SO22.5 105 0 min 6,54 klux -2,1 C -1,3 C
13.01.2008 10:12 -1,3 C -1,5 C -1,4 C 94 % 1018 hPa 0,0 l/m 1,2 m/s (1 Bft) O-SO 115 0 min 8,44 klux -2,1 C -1,3 C
13.01.2008 10:17 -1,0 C -1,3 C -1,2 C 94 % 1018 hPa 0,0 l/m 1,8 m/s (2 Bft) O-SO 120 0 min 8,50 klux -1,8 C -1,0 C
13.01.2008 10:22 -0,9 C -1,2 C -1,0 C 94 % 1018 hPa 0,0 l/m 1,3 m/s (1 Bft) O-SO 120 0 min 8,74 klux -1,7 C -0,9 C
13.01.2008 10:27 -0,9 C -0,9 C -1,0 C 94 % 1018 hPa 0,0 l/m 1,1 m/s (1 Bft) O-SO 120 0 min 9,4 klux -1,7 C -0,9 C
13.01.2008 10:32 -1,1 C -0,8 C -1,0 C 94 % 1018 hPa 0,0 l/m 1,4 m/s (1 Bft) O-SO 120 0 min 9,1 klux -1,9 C -1,1 C
13.01.2008 10:37 -1,0 C -0,6 C -1,0 C 93 % 1018 hPa 0,0 l/m 1,2 m/s (1 Bft) O-SO 120 0 min 9,4 klux -2,0 C -1,0 C
13.01.2008 10:42 -0,9 C -0,5 C -1,0 C 94 % 1018 hPa 0,0 l/m 1,8 m/s (2 Bft) O22.5 95 0 min 10,4 klux -1,7 C -1,0 C
13.01.2008 10:47 -0,8 C -0,3 C -0,9 C 94 % 1018 hPa 0,0 l/m 1,7 m/s (2 Bft) O-SO 120 0 min 10,9 klux -1,6 C -0,8 C
13.01.2008 10:52 -0,6 C -0,3 C -0,8 C 94 % 1019 hPa 0,0 l/m 1,2 m/s (1 Bft) O-SO 120 0 min 11,5 klux -1,4 C -0,6 C
13.01.2008 10:57 -0,6 C 0,0 C -0,5 C 94 % 1019 hPa 0,0 l/m 0,9 m/s (1 Bft) O-SO 120 0 min 11,7 klux -1,4 C -0,6 C
13.01.2008 11:02 -0,4 C 0,1 C -0,5 C 94 % 1019 hPa 0,0 l/m 1,0 m/s (1 Bft) SO 125 0 min 11,8 klux -1,2 C -0,4 C
13.01.2008 11:07 -0,3 C 0,3 C -0,4 C 93 % 1018 hPa 0,0 l/m 1,1 m/s (1 Bft) O-SO 120 0 min 17,3 klux -1,3 C -0,3 C
13.01.2008 11:12 -0,3 C 0,5 C -0,3 C 93 % 1018 hPa 0,0 l/m 0,7 m/s (1 Bft) O-SO 120 0 min 16,8 klux -1,3 C -0,3 C
13.01.2008 11:17 0,0 C 0,7 C -0,4 C 93 % 1018 hPa 0,0 l/m 1,1 m/s (1 Bft) SO 130 0 min 11,6 klux -1,0 C 0,0 C
13.01.2008 11:22 0,0 C 0,8 C -0,4 C 94 % 1018 hPa 0,0 l/m 0,2 m/s (0 Bft) SO 130 0 min 10,8 klux -0,8 C 0,0 C
13.01.2008 11:27 -0,2 C 0,8 C -0,1 C 93 % 1018 hPa 0,0 l/m 0,8 m/s (1 Bft) SO 130 0 min 12,1 klux -1,2 C -0,2 C
13.01.2008 11:32 0,1 C 1,0 C -0,3 C 93 % 1018 hPa 0,0 l/m 0,1 m/s (0 Bft) O-SO 105 0 min 11,7 klux -0,9 C 0,1 C
13.01.2008 11:36 0,2 C 1,0 C -0,2 C 93 % 1018 hPa 0,0 l/m 0,3 m/s (1 Bft) O-SO 115 0 min 10,7 klux -0,8 C 0,2 C
13.01.2008 11:42 0,1 C 1,1 C -0,3 C 93 % 1018 hPa 0,0 l/m 1,0 m/s (1 Bft) O-SO 115 0 min 10,9 klux -0,9 C 0,1 C
13.01.2008 11:47 -0,5 C 1,1 C -0,3 C 93 % 1018 hPa 0,0 l/m 1,1 m/s (1 Bft) SO 130 0 min 11,1 klux -1,5 C -0,5 C
13.01.2008 11:52 -0,2 C 1,1 C -0,2 C 92 % 1018 hPa 0,0 l/m 1,6 m/s (1 Bft) O-SO22.5 110 0 min 10,6 klux -1,3 C -0,2 C
13.01.2008 11:57 -0,3 C 1,0 C -0,2 C 92 % 1018 hPa 0,0 l/m 1,9 m/s (2 Bft) O-SO 105 0 min 9,6 klux -1,4 C -0,6 C
13.01.2008 12:02 -0,3 C 1,0 C -0,1 C 92 % 1018 hPa 0,0 l/m 1,6 m/s (1 Bft) O-SO 105 0 min 13,4 klux -1,4 C -0,3 C
13.01.2008 12:07 0,2 C 1,1 C 0,3 C 93 % 1018 hPa 0,0 l/m 1,2 m/s (1 Bft) O22.5 100 0 min 15,2 klux -0,8 C 0,2 C
13.01.2008 12:12 0,3 C 1,3 C 0,3 C 93 % 1018 hPa 0,0 l/m 1,9 m/s (2 Bft) O-SO 115 0 min 17,4 klux -0,7 C -0,1 C
13.01.2008 12:17 0,4 C 1,4 C 0,3 C 93 % 1018 hPa 0,0 l/m 1,6 m/s (2 Bft) O-SO22.5 105 0 min 14,2 klux -0,6 C 0,4 C
13.01.2008 12:22 0,3 C 1,4 C 0,2 C 93 % 1018 hPa 0,0 l/m 2,4 m/s (2 Bft) O-SO 105 0 min 11,9 klux -0,7 C -1,9 C
13.01.2008 12:27 0,5 C 1,5 C 0,4 C 93 % 1018 hPa 0,0 l/m 0,7 m/s (1 Bft) O-SO 110 0 min 11,7 klux -0,5 C 0,5 C
13.01.2008 12:32 0,3 C 1,4 C 0,2 C 93 % 1018 hPa 0,0 l/m 1,5 m/s (1 Bft) O-SO 105 0 min 8,78 klux -0,7 C 0,3 C
13.01.2008 12:37 0,4 C 1,4 C 0,1 C 92 % 1018 hPa 0,0 l/m 1,9 m/s (2 Bft) O22.5 95 0 min 7,96 klux -0,7 C 0,0 C
13.01.2008 12:42 0,4 C 1,3 C -0,1 C 92 % 1018 hPa 0,0 l/m 2,0 m/s (2 Bft) O45 90 0 min 6,51 klux -0,7 C -0,4 C
13.01.2008 12:47 0,1 C 1,2 C -0,1 C 92 % 1017 hPa 0,0 l/m 2,6 m/s (2 Bft) O22.5 95 0 min 10,0 klux -1,0 C -2,8 C
13.01.2008 12:52 0,1 C 1,2 C 0,1 C 92 % 1017 hPa 0,0 l/m 3,1 m/s (2 Bft) O-SO22.5 110 0 min 11,5 klux -1,0 C -4,3 C
13.01.2008 12:57 0,3 C 1,2 C 0,4 C 92 % 1017 hPa 0,0 l/m 3,1 m/s (2 Bft) O45 90 0 min 12,1 klux -0,8 C -4,0 C
13.01.2008 13:02 0,3 C 1,3 C 0,3 C 92 % 1017 hPa 0,0 l/m 2,7 m/s (2 Bft) O-SO22.5 105 0 min 11,0 klux -0,8 C -2,8 C
13.01.2008 13:07 0,3 C 1,2 C 0,2 C 92 % 1017 hPa 0,0 l/m 2,6 m/s (2 Bft) O 100 0 min 11,0 klux -0,8 C -2,6 C
13.01.2008 13:12 0,4 C 1,3 C 0,4 C 92 % 1017 hPa 0,0 l/m 2,4 m/s (2 Bft) O45 85 0 min 10,7 klux -0,7 C -1,9 C
13.01.2008 13:17 0,3 C 1,3 C 0,4 C 92 % 1017 hPa 0,0 l/m 2,7 m/s (2 Bft) O22.5 95 0 min 10,5 klux -0,8 C -2,8 C
13.01.2008 13:22 0,5 C 1,3 C 0,4 C 93 % 1017 hPa 0,0 l/m 1,4 m/s (1 Bft) O-SO22.5 105 0 min 8,83 klux -0,5 C 0,5 C
13.01.2008 13:27 0,5 C 1,3 C 0,4 C 93 % 1017 hPa 0,0 l/m 3,0 m/s (2 Bft) O22.5 90 0 min 8,50 klux -0,5 C -3,5 C
13.01.2008 13:32 0,6 C 1,2 C 0,6 C 92 % 1017 hPa 0,0 l/m 2,7 m/s (2 Bft) O-SO22.5 110 0 min 11,2 klux -0,5 C -2,5 C
13.01.2008 13:37 0,6 C 1,3 C 0,7 C 92 % 1017 hPa 0,0 l/m 2,3 m/s (2 Bft) O22.5 95 0 min 9,9 klux -0,5 C -1,1 C
13.01.2008 13:42 0,5 C 1,3 C 0,4 C 92 % 1017 hPa 0,0 l/m 2,6 m/s (2 Bft) O22.5 100 0 min 8,27 klux -0,6 C -2,5 C
13.01.2008 13:47 0,6 C 1,3 C 0,3 C 92 % 1017 hPa 0,0 l/m 2,0 m/s (2 Bft) O-SO45 105 0 min 8,38 klux -0,5 C -0,2 C
13.01.2008 13:52 0,8 C 1,4 C 0,6 C 92 % 1017 hPa 0,0 l/m 1,8 m/s (2 Bft) O-SO 105 0 min 8,38 klux -0,3 C 0,8 C
13.01.2008 13:57 0,9 C 1,4 C 0,6 C 92 % 1017 hPa 0,0 l/m 3,1 m/s (2 Bft) O-SO22.5 105 0 min 7,98 klux -0,2 C -3,3 C
13.01.2008 14:02 0,8 C 1,4 C 0,5 C 92 % 1017 hPa 0,0 l/m 2,1 m/s (2 Bft) O22.5 100 0 min 7,13 klux -0,3 C -0,4 C
13.01.2008 14:07 1,0 C 1,4 C 0,5 C 92 % 1017 hPa 0,0 l/m 2,6 m/s (2 Bft) O-SO22.5 110 0 min 7,33 klux -0,2 C -1,8 C
13.01.2008 14:12 0,9 C 1,4 C 0,5 C 92 % 1017 hPa 0,0 l/m 2,5 m/s (2 Bft) O22.5 90 0 min 6,72 klux -0,2 C -1,5 C
13.01.2008 14:17 0,9 C 1,4 C 0,5 C 92 % 1017 hPa 0,0 l/m 3,3 m/s (2 Bft) O45 80 0 min 4,91 klux -0,2 C -4,0 C
13.01.2008 14:22 1,0 C 1,4 C 0,6 C 91 % 1017 hPa 0,0 l/m 2,9 m/s (2 Bft) O22.5 90 0 min 8,21 klux -0,3 C -2,7 C
13.01.2008 14:27 1,3 C 1,4 C 1,0 C 91 % 1017 hPa 0,0 l/m 1,8 m/s (2 Bft) O22.5 95 0 min 10,1 klux -0,0 C 1,3 C
13.01.2008 14:32 1,5 C 1,6 C 0,9 C 92 % 1017 hPa 0,0 l/m 1,1 m/s (1 Bft) O22.5 100 0 min 8,44 klux 0,3 C 1,5 C
13.01.2008 14:37 1,3 C 1,6 C 0,7 C 91 % 1016 hPa 0,0 l/m 1,5 m/s (1 Bft) O-SO22.5 120 0 min 6,12 klux -0,0 C 1,3 C
13.01.2008 14:42 1,3 C 1,7 C 0,7 C 91 % 1016 hPa 0,0 l/m 1,6 m/s (2 Bft) O-SO 115 0 min 6,57 klux -0,0 C 1,3 C
13.01.2008 14:47 1,1 C 1,7 C 0,7 C 91 % 1016 hPa 0,0 l/m 3,5 m/s (3 Bft) O-SO 115 0 min 6,54 klux -0,2 C -4,1 C
13.01.2008 14:52 1,4 C 1,8 C 0,7 C 91 % 1016 hPa 0,0 l/m 2,5 m/s (2 Bft) SO22.5 135 0 min 8,04 klux 0,1 C -1,1 C
13.01.2008 14:57 1,4 C 1,8 C 0,8 C 90 % 1016 hPa 0,0 l/m 1,6 m/s (1 Bft) SO22.5 130 0 min 7,07 klux -0,1 C 1,4 C
13.01.2008 15:02 1,5 C 1,9 C 0,8 C 90 % 1016 hPa 0,0 l/m 1,4 m/s (1 Bft) O-SO22.5 115 0 min 5,97 klux 0,0 C 1,5 C
13.01.2008 15:07 1,4 C 1,9 C 0,7 C 90 % 1016 hPa 0,0 l/m 2,2 m/s (2 Bft) O45 80 0 min 5,66 klux -0,1 C 0,0 C
13.01.2008 15:12 1,4 C 1,8 C 0,8 C 89 % 1016 hPa 0,0 l/m 2,7 m/s (2 Bft) O-SO22.5 105 0 min 6,28 klux -0,2 C -1,7 C
13.01.2008 15:17 1,4 C 1,8 C 0,8 C 89 % 1016 hPa 0,0 l/m 2,7 m/s (2 Bft) O-SO22.5 110 0 min 5,54 klux -0,2 C -1,7 C
13.01.2008 15:22 1,5 C 1,8 C 0,7 C 89 % 1016 hPa 0,0 l/m 1,7 m/s (2 Bft) O-SO22.5 115 0 min 5,81 klux -0,1 C 1,5 C
13.01.2008 15:27 1,6 C 1,9 C 0,8 C 89 % 1016 hPa 0,0 l/m 1,4 m/s (1 Bft) SO22.5 145 0 min 6,93 klux -0,0 C 1,6 C
13.01.2008 15:32 1,7 C 1,9 C 0,8 C 89 % 1016 hPa 0,0 l/m 1,7 m/s (2 Bft) SO22.5 125 0 min 5,29 klux 0,1 C 1,7 C
13.01.2008 15:37 1,5 C 1,9 C 0,7 C 88 % 1016 hPa 0,0 l/m 2,1 m/s (2 Bft) O22.5 100 0 min 5,29 klux -0,3 C 0,2 C
13.01.2008 15:42 1,6 C 1,9 C 0,7 C 88 % 1016 hPa 0,0 l/m 2,8 m/s (2 Bft) SO22.5 125 0 min 4,65 klux -0,2 C -1,7 C
13.01.2008 15:47 1,5 C 1,9 C 0,6 C 88 % 1016 hPa 0,0 l/m 1,1 m/s (1 Bft) O22.5 100 0 min 3,48 klux -0,3 C 1,5 C
13.01.2008 15:52 1,5 C 1,8 C 0,6 C 88 % 1016 hPa 0,0 l/m 1,3 m/s (1 Bft) O 95 0 min 3,16 klux -0,3 C 1,5 C
13.01.2008 15:57 1,5 C 1,8 C 0,6 C 88 % 1016 hPa 0,0 l/m 0,4 m/s (1 Bft) O-SO 105 0 min 3,19 klux -0,3 C 1,5 C
13.01.2008 16:02 1,3 C 1,7 C 0,4 C 88 % 1016 hPa 0,0 l/m 1,6 m/s (2 Bft) O22.5 100 0 min 1,80 klux -0,5 C 1,3 C
13.01.2008 16:07 1,4 C 1,7 C 0,5 C 88 % 1016 hPa 0,0 l/m 0,9 m/s (1 Bft) O-SO22.5 110 0 min 2,00 klux -0,4 C 1,4 C
13.01.2008 16:12 1,3 C 1,7 C 0,4 C 88 % 1016 hPa 0,0 l/m 1,5 m/s (1 Bft) O-SO 115 0 min 1,57 klux -0,5 C 1,3 C
13.01.2008 16:17 1,3 C 1,6 C 0,3 C 88 % 1016 hPa 0,0 l/m 0,8 m/s (1 Bft) SO 145 0 min 1,45 klux -0,5 C 1,3 C
13.01.2008 16:22 1,2 C 1,6 C 0,2 C 88 % 1016 hPa 0,0 l/m 2,4 m/s (2 Bft) O-SO22.5 110 0 min 1,09 klux -0,6 C -1,0 C
13.01.2008 16:27 1,1 C 1,5 C -0,2 C 88 % 1016 hPa 0,0 l/m 2,4 m/s (2 Bft) O-SO22.5 110 0 min 895 lux -0,7 C -1,1 C
13.01.2008 16:32 0,9 C 1,4 C -0,3 C 89 % 1016 hPa 0,0 l/m 1,4 m/s (1 Bft) O-SO22.5 105 0 min 638 lux -0,7 C 0,9 C
13.01.2008 16:37 0,6 C 1,2 C -0,6 C 89 % 1016 hPa 0,0 l/m 0,9 m/s (1 Bft) O 85 0 min 517 lux -1,0 C 0,6 C
13.01.2008 16:42 0,5 C 1,0 C -0,6 C 89 % 1016 hPa 0,0 l/m 0,0 m/s (0 Bft) O 85 0 min 402 lux -1,1 C 0,5 C
13.01.2008 16:47 0,4 C 1,0 C -1,0 C 89 % 1016 hPa 0,0 l/m 0,0 m/s (0 Bft) O 85 0 min 237 lux -1,2 C 0,4 C
13.01.2008 16:52 0,4 C 0,7 C -0,9 C 89 % 1016 hPa 0,0 l/m 0,0 m/s (0 Bft) O 85 0 min 188 lux -1,2 C 0,4 C
13.01.2008 16:57 0,1 C 0,6 C -1,2 C 89 % 1016 hPa 0,0 l/m 0,0 m/s (0 Bft) O 85 0 min 115 lux -1,5 C 0,1 C
13.01.2008 17:02 -0,4 C 0,4 C -1,4 C 89 % 1016 hPa 0,0 l/m 0,0 m/s (0 Bft) O 85 0 min 71 lux -2,0 C -0,4 C
13.01.2008 17:07 -0,3 C 0,2 C -1,4 C 89 % 1016 hPa 0,0 l/m 0,0 m/s (0 Bft) O 85 0 min 42 lux -1,9 C -0,3 C
13.01.2008 17:12 -0,4 C 0,0 C -1,5 C 89 % 1016 hPa 0,0 l/m 0,0 m/s (0 Bft) O 85 0 min 17 lux -2,0 C -0,4 C
13.01.2008 17:17 -0,6 C -0,2 C -1,5 C 89 % 1016 hPa 0,0 l/m 0,0 m/s (0 Bft) O 85 0 min 15 lux -2,2 C -0,6 C
13.01.2008 17:22 -0,4 C -0,3 C -1,2 C 90 % 1016 hPa 0,0 l/m 0,9 m/s (1 Bft) O 85 0 min 8 lux -1,8 C -0,4 C
13.01.2008 17:27 -0,3 C -0,4 C -1,0 C 91 % 1016 hPa 0,0 l/m 1,1 m/s (1 Bft) O 100 0 min 2 lux -1,6 C -0,3 C
13.01.2008 17:32 -0,3 C -0,4 C -1,1 C 91 % 1015 hPa 0,0 l/m 0,0 m/s (0 Bft) O 100 0 min 1 lux -1,6 C -0,3 C
13.01.2008 17:37 -0,4 C -0,4 C -1,4 C 91 % 1015 hPa 0,0 l/m 0,0 m/s (0 Bft) O 100 0 min 0 lux -1,7 C -0,4 C
13.01.2008 17:42 -0,6 C -0,5 C -1,4 C 91 % 1015 hPa 0,0 l/m 0,0 m/s (0 Bft) O 100 0 min 0 lux -1,9 C -0,6 C
13.01.2008 17:47 -0,7 C -0,6 C -1,6 C 92 % 1015 hPa 0,0 l/m 0,0 m/s (0 Bft) O 100 0 min 0 lux -1,8 C -0,7 C
13.01.2008 17:52 -0,8 C -0,6 C -1,2 C 91 % 1015 hPa 0,0 l/m 0,0 m/s (0 Bft) O 100 0 min 0 lux -2,1 C -0,8 C
13.01.2008 17:57 -0,6 C -0,6 C -1,1 C 92 % 1015 hPa 0,0 l/m 0,0 m/s (0 Bft) O 100 0 min 0 lux -1,7 C -0,6 C
13.01.2008 18:02 -0,4 C -0,6 C -1,1 C 92 % 1015 hPa 0,0 l/m 0,3 m/s (0 Bft) O 100 0 min 0 lux -1,5 C -0,4 C
13.01.2008 18:07 0,0 C -0,5 C -0,7 C 93 % 1015 hPa 0,0 l/m 2,1 m/s (2 Bft) O 100 0 min 0 lux -1,0 C -1,2 C
13.01.2008 18:12 0,2 C -0,4 C -0,7 C 93 % 1015 hPa 0,0 l/m 1,8 m/s (2 Bft) O 100 0 min 0 lux -0,8 C 0,2 C
13.01.2008 18:17 0,5 C -0,4 C -0,6 C 93 % 1015 hPa 0,0 l/m 3,5 m/s (3 Bft) O 100 0 min 0 lux -0,5 C -4,8 C
13.01.2008 18:22 0,5 C -0,2 C -0,4 C 94 % 1015 hPa 0,0 l/m 3,0 m/s (2 Bft) O 100 0 min 0 lux -0,4 C -3,5 C
13.01.2008 18:27 0,6 C -0,1 C -0,3 C 94 % 1015 hPa 0,0 l/m 2,6 m/s (2 Bft) O 100 0 min 0 lux -0,3 C -2,2 C
13.01.2008 18:32 0,7 C 0,0 C -0,3 C 94 % 1015 hPa 0,0 l/m 2,8 m/s (2 Bft) O 100 0 min 0 lux -0,2 C -2,7 C
13.01.2008 18:37 0,7 C 0,1 C -0,3 C 94 % 1015 hPa 0,0 l/m 2,9 m/s (2 Bft) O 100 0 min 0 lux -0,2 C -3,1 C
13.01.2008 18:42 0,7 C 0,1 C -0,3 C 93 % 1015 hPa 0,0 l/m 2,8 m/s (2 Bft) O 100 0 min 0 lux -0,3 C -2,7 C
13.01.2008 18:47 0,7 C 0,2 C -0,3 C 93 % 1015 hPa 0,0 l/m 2,7 m/s (2 Bft) O 100 0 min 0 lux -0,3 C -2,3 C
13.01.2008 18:52 0,7 C 0,2 C -0,3 C 93 % 1015 hPa 0,0 l/m 2,8 m/s (2 Bft) O 100 0 min 0 lux -0,3 C -2,7 C
13.01.2008 18:57 0,7 C 0,3 C -0,3 C 92 % 1015 hPa 0,0 l/m 4,8 m/s (3 Bft) O-SO22.5 110 0 min 0 lux -0,4 C -7,4 C
13.01.2008 19:02 0,7 C 0,3 C -0,3 C 92 % 1015 hPa 0,0 l/m 2,9 m/s (2 Bft) SO 135 0 min 0 lux -0,4 C -3,1 C
13.01.2008 19:07 0,7 C 0,3 C -0,3 C 92 % 1015 hPa 0,0 l/m 2,4 m/s (2 Bft) SO 135 0 min 0 lux -0,4 C -1,6 C
13.01.2008 19:12 0,7 C 0,3 C -0,3 C 92 % 1015 hPa 0,0 l/m 3,4 m/s (2 Bft) SO 135 0 min 0 lux -0,4 C -4,3 C
13.01.2008 19:17 0,7 C 0,4 C -0,3 C 92 % 1015 hPa 0,0 l/m 4,1 m/s (3 Bft) SO22.5 130 0 min 0 lux -0,4 C -5,9 C
13.01.2008 19:22 0,7 C 0,4 C -0,3 C 91 % 1015 hPa 0,0 l/m 2,7 m/s (2 Bft) SO22.5 125 0 min 0 lux -0,6 C -2,5 C
13.01.2008 19:27 0,7 C 0,4 C -0,3 C 91 % 1015 hPa 0,0 l/m 2,5 m/s (2 Bft) O-SO22.5 120 0 min 0 lux -0,6 C -1,8 C
13.01.2008 19:32 0,7 C 0,4 C -0,3 C 91 % 1015 hPa 0,0 l/m 3,9 m/s (3 Bft) O-SO 115 0 min 0 lux -0,6 C -5,7 C
13.01.2008 19:37 0,7 C 0,4 C -0,3 C 91 % 1015 hPa 0,0 l/m 3,6 m/s (3 Bft) O-SO22.5 120 0 min 0 lux -0,6 C -4,7 C
13.01.2008 19:42 0,6 C 0,4 C -0,4 C 91 % 1015 hPa 0,0 l/m 3,9 m/s (3 Bft) O-SO22.5 120 0 min 0 lux -0,7 C -5,8 C
13.01.2008 19:47 0,6 C 0,4 C -0,3 C 90 % 1015 hPa 0,0 l/m 3,1 m/s (2 Bft) SO45 125 0 min 0 lux -0,8 C -3,8 C
13.01.2008 19:52 0,6 C 0,4 C -0,4 C 90 % 1015 hPa 0,0 l/m 2,7 m/s (2 Bft) O-SO 105 0 min 0 lux -0,8 C -2,6 C
13.01.2008 19:57 0,6 C 0,4 C -0,4 C 90 % 1015 hPa 0,0 l/m 3,7 m/s (3 Bft) O-SO 105 0 min 0 lux -0,8 C -5,2 C
13.01.2008 20:02 0,5 C 0,4 C -0,4 C 90 % 1015 hPa 0,0 l/m 1,7 m/s (2 Bft) O-SO 105 0 min 0 lux -0,9 C 0,5 C
13.01.2008 20:07 0,5 C 0,4 C -0,5 C 90 % 1014 hPa 0,0 l/m 3,0 m/s (2 Bft) O-SO 105 0 min 0 lux -0,9 C -3,6 C
13.01.2008 20:12 0,5 C 0,4 C -0,5 C 90 % 1014 hPa 0,0 l/m 2,2 m/s (2 Bft) O-SO 105 0 min 0 lux -0,9 C -1,0 C
13.01.2008 20:17 0,5 C 0,4 C -0,4 C 90 % 1014 hPa 0,0 l/m 3,4 m/s (2 Bft) O-SO 105 0 min 0 lux -0,9 C -4,6 C
13.01.2008 20:22 0,5 C 0,4 C -0,5 C 90 % 1014 hPa 0,0 l/m 3,6 m/s (3 Bft) O-SO 105 0 min 0 lux -0,9 C -5,1 C
13.01.2008 20:27 0,4 C 0,4 C -0,5 C 90 % 1014 hPa 0,0 l/m 3,2 m/s (2 Bft) O-SO 105 0 min 0 lux -1,0 C -4,1 C
13.01.2008 20:32 0,4 C 0,4 C -0,5 C 90 % 1014 hPa 0,0 l/m 2,9 m/s (2 Bft) O-SO 105 0 min 0 lux -1,0 C -3,3 C
13.01.2008 20:37 0,4 C 0,4 C -0,5 C 89 % 1014 hPa 0,0 l/m 3,9 m/s (3 Bft) O-SO 105 0 min 0 lux -1,2 C -6,0 C
13.01.2008 20:42 0,4 C 0,3 C -0,5 C 90 % 1014 hPa 0,0 l/m 3,3 m/s (2 Bft) O-SO 105 0 min 0 lux -1,0 C -4,3 C
13.01.2008 20:47 0,3 C 0,3 C -0,6 C 90 % 1014 hPa 0,0 l/m 4,1 m/s (3 Bft) O-SO 105 0 min 0 lux -1,1 C -6,4 C
13.01.2008 20:52 0,2 C 0,3 C -0,6 C 90 % 1014 hPa 0,0 l/m 4,1 m/s (3 Bft) O-SO 105 0 min 0 lux -1,2 C -6,6 C
13.01.2008 20:57 0,2 C 0,3 C -0,6 C 90 % 1014 hPa 0,0 l/m 5,1 m/s (3 Bft) O-SO 105 0 min 0 lux -1,2 C -8,7 C
13.01.2008 21:02 0,1 C 0,2 C -0,6 C 90 % 1014 hPa 0,0 l/m 4,2 m/s (3 Bft) O-SO 105 0 min 0 lux -1,3 C -7,0 C
13.01.2008 21:07 0,1 C 0,2 C -0,6 C 90 % 1014 hPa 0,0 l/m 4,3 m/s (3 Bft) O-SO 105 0 min 0 lux -1,3 C -7,1 C
13.01.2008 21:12 0,1 C 0,2 C -0,6 C 90 % 1014 hPa 0,0 l/m 3,3 m/s (2 Bft) O-SO 105 0 min 0 lux -1,3 C -4,7 C
13.01.2008 21:17 0,2 C 0,1 C -0,6 C 91 % 1014 hPa 0,0 l/m 3,4 m/s (2 Bft) O-SO 105 0 min 0 lux -1,1 C -4,8 C
13.01.2008 21:22 0,2 C 0,1 C -0,6 C 91 % 1014 hPa 0,0 l/m 3,5 m/s (3 Bft) O-SO 105 0 min 0 lux -1,1 C -5,2 C
13.01.2008 21:27 0,2 C 0,1 C -0,6 C 91 % 1014 hPa 0,0 l/m 3,1 m/s (2 Bft) O-SO 105 0 min 0 lux -1,1 C -4,1 C
13.01.2008 21:32 0,2 C 0,1 C -0,6 C 91 % 1013 hPa 0,0 l/m 4,2 m/s (3 Bft) O-SO 105 0 min 0 lux -1,1 C -6,8 C
13.01.2008 21:37 0,2 C 0,1 C -0,6 C 91 % 1013 hPa 0,0 l/m 3,6 m/s (3 Bft) O-SO 105 0 min 0 lux -1,1 C -5,3 C
13.01.2008 21:42 0,2 C 0,1 C -0,6 C 91 % 1013 hPa 0,0 l/m 3,4 m/s (3 Bft) O-SO 105 0 min 0 lux -1,1 C -5,0 C
13.01.2008 21:47 0,2 C 0,1 C -0,6 C 91 % 1013 hPa 0,0 l/m 3,4 m/s (2 Bft) O-SO 105 0 min 0 lux -1,1 C -4,8 C
13.01.2008 21:52 0,3 C 0,1 C -0,6 C 91 % 1013 hPa 0,0 l/m 3,8 m/s (3 Bft) O-SO 105 0 min 0 lux -1,0 C -5,7 C
13.01.2008 21:57 0,3 C 0,1 C -0,5 C 91 % 1013 hPa 0,0 l/m 3,4 m/s (3 Bft) O-SO 105 0 min 0 lux -1,0 C -4,9 C
13.01.2008 22:02 0,3 C 0,1 C -0,5 C 91 % 1013 hPa 0,0 l/m 3,6 m/s (3 Bft) O-SO 105 0 min 0 lux -1,0 C -5,4 C
13.01.2008 22:07 0,4 C 0,1 C -0,5 C 91 % 1013 hPa 0,0 l/m 4,1 m/s (3 Bft) O-SO 105 0 min 0 lux -0,9 C -6,3 C
13.01.2008 22:12 0,4 C 0,1 C -0,5 C 91 % 1013 hPa 0,0 l/m 4,6 m/s (3 Bft) O-SO 105 0 min 0 lux -0,9 C -7,4 C
13.01.2008 22:17 0,4 C 0,1 C -0,5 C 91 % 1013 hPa 0,0 l/m 3,4 m/s (3 Bft) O-SO 105 0 min 0 lux -0,9 C -4,8 C
13.01.2008 22:22 0,5 C 0,2 C -0,4 C 91 % 1013 hPa 0,0 l/m 3,7 m/s (3 Bft) O-SO 105 0 min 0 lux -0,8 C -5,2 C
13.01.2008 22:27 0,6 C 0,2 C -0,4 C 91 % 1012 hPa 0,0 l/m 3,1 m/s (2 Bft) O-SO 105 0 min 0 lux -0,7 C -3,7 C
13.01.2008 22:32 0,5 C 0,2 C -0,4 C 90 % 1012 hPa 0,0 l/m 2,6 m/s (2 Bft) O-SO 105 0 min 0 lux -0,9 C -2,4 C
13.01.2008 22:37 0,6 C 0,2 C -0,4 C 90 % 1012 hPa 0,0 l/m 2,9 m/s (2 Bft) O-SO 105 0 min 0 lux -0,8 C -3,2 C
13.01.2008 22:42 0,6 C 0,3 C -0,3 C 90 % 1012 hPa 0,0 l/m 1,6 m/s (2 Bft) O-SO 105 0 min 0 lux -0,8 C 0,6 C
13.01.2008 22:47 0,7 C 0,3 C -0,3 C 90 % 1012 hPa 0,0 l/m 3,2 m/s (2 Bft) O-SO 105 0 min 0 lux -0,7 C -3,8 C
13.01.2008 22:52 0,7 C 0,3 C -0,3 C 90 % 1012 hPa 0,0 l/m 3,4 m/s (3 Bft) O-SO 105 0 min 0 lux -0,7 C -4,4 C
13.01.2008 22:57 0,7 C 0,3 C -0,3 C 90 % 1012 hPa 0,0 l/m 3,1 m/s (2 Bft) O-SO 105 0 min 0 lux -0,7 C -3,6 C
13.01.2008 23:02 0,8 C 0,4 C -0,2 C 90 % 1012 hPa 0,0 l/m 4,1 m/s (3 Bft) O-SO 105 0 min 0 lux -0,6 C -5,9 C
13.01.2008 23:07 0,8 C 0,4 C -0,2 C 90 % 1012 hPa 0,0 l/m 3,2 m/s (2 Bft) O-SO 105 0 min 0 lux -0,6 C -3,6 C
13.01.2008 23:12 0,9 C 0,4 C -0,2 C 90 % 1012 hPa 0,0 l/m 3,2 m/s (2 Bft) O-SO 105 0 min 0 lux -0,6 C -3,6 C
13.01.2008 23:17 0,9 C 0,5 C -0,2 C 90 % 1012 hPa 0,0 l/m 3,2 m/s (2 Bft) O-SO 105 0 min 0 lux -0,6 C -3,6 C
13.01.2008 23:22 0,9 C 0,5 C -0,1 C 90 % 1012 hPa 0,0 l/m 3,3 m/s (2 Bft) O-SO 105 0 min 0 lux -0,6 C -3,9 C
13.01.2008 23:27 1,0 C 0,5 C -0,1 C 89 % 1012 hPa 0,0 l/m 3,4 m/s (2 Bft) O-SO 105 0 min 0 lux -0,6 C -4,0 C
13.01.2008 23:31 1,0 C 0,5 C -0,1 C 89 % 1012 hPa 0,0 l/m 3,4 m/s (2 Bft) O-SO 105 0 min 0 lux -0,6 C -4,0 C
13.01.2008 23:37 1,0 C 0,6 C -0,1 C 89 % 1012 hPa 0,0 l/m 1,9 m/s (2 Bft) O-SO 105 0 min 0 lux -0,6 C 0,7 C
13.01.2008 23:42 1,0 C 0,6 C -0,1 C 89 % 1012 hPa 0,0 l/m 1,6 m/s (2 Bft) O-SO 105 0 min 0 lux -0,6 C 1,0 C
13.01.2008 23:47 1,0 C 0,6 C -0,1 C 89 % 1012 hPa 0,0 l/m 2,7 m/s (2 Bft) O 100 0 min 0 lux -0,6 C -2,0 C
13.01.2008 23:52 1,0 C 0,6 C -0,1 C 89 % 1012 hPa 0,0 l/m 2,9 m/s (2 Bft) O 95 0 min 0 lux -0,6 C -2,7 C
13.01.2008 23:57 1,0 C 0,6 C 0,0 C 89 % 1012 hPa 0,0 l/m 2,5 m/s (2 Bft) O-SO22.5 115 0 min 0 lux -0,6 C -1,6 C
_ Min-Zeit 07:12 07:17 06:42 00:02 22:27 - 00:02 - - - - 07:12 20:57
Minimum _ -4,6 C -4,5 C -4,5 C 88 % 1012 hPa - 0,0 m/s (0 Bft) - - - - -6,1 C -8,7 C
_ Max-Zeit 15:32 15:02 14:27 10:02 10:52 00:02 20:57 - - 00:02 12:12 14:32 15:32
Maximum _ 1,7 C 1,9 C 1,0 C 94 % 1019 hPa 0,0 l/m 5,1 m/s
O-SO (3 Bft)
- - 0 min 17,4 klux 0,3 C 1,7 C
Durchschnitt _ -1,1 C -1,1 C -1,6 C 91 % 1017 hPa #0,0 l/m 1,4 m/s (1 Bft) O-SO - #0 min. 2,48 klux -2,4 C -2,5 C